This is the latest recevied weather packets stored in our database for station/object NQ9F. If no packets are shown the sender has not sent any weather packets the latest 10 day(s).
| Time | Temp. | Humidity | Pressure | Rain* | Wind** | Luminosity | Snow |
|---|---|---|---|---|---|---|---|
| 1777582496 | 16.11° C | 83% | 1014.4 hPa | 0 mm | - | 86 W/m² | - |
| 1777581279 | 16.11° C | 85% | 1014 hPa | 0 mm | - | 202 W/m² | - |
| 1777580673 | 16.11° C | 85% | 1014.1 hPa | 0 mm | - | 113 W/m² | - |
| 1777580369 | 16.11° C | 86% | 1014.3 hPa | 0 mm | - | 86 W/m² | - |
| 1777580066 | 16.11° C | 87% | 1014.5 hPa | 0 mm | - | 68 W/m² | - |
| 1777579763 | 16.11° C | 88% | 1014.3 hPa | 0 mm | - | 57 W/m² | - |
| 1777579155 | 16.11° C | 88% | 1013.9 hPa | 0 mm | - | 125 W/m² | - |
| 1777578851 | 16.11° C | 88% | 1013.9 hPa | 0 mm | - | 106 W/m² | - |
| 1777578546 | 16.11° C | 89% | 1014.4 hPa | 0 mm | - | 71 W/m² | - |
| 1777578241 | 16.11° C | 89% | 1014.7 hPa | 0 mm | - | 71 W/m² | - |
| 1777577936 | 16.11° C | 89% | 1014.8 hPa | 0 mm | - | 47 W/m² | - |
| 1777577632 | 16.11° C | 89% | 1014.4 hPa | 0 mm | - | 75 W/m² | - |
| 1777577330 | 16.11° C | 89% | 1014.3 hPa | 0 mm | - | 80 W/m² | - |
| 1777576724 | 15.56° C | 89% | 1014.1 hPa | 0 mm | - | 101 W/m² | - |
| 1777575814 | 15.56° C | 90% | 1014 hPa | 0 mm | - | 73 W/m² | - |
| 1777575512 | 15.56° C | 90% | 1013.7 hPa | 0 mm | - | 84 W/m² | - |
| 1777572471 | 15° C | 94% | 1014.7 hPa | 0 mm | - | 51 W/m² | - |
| 1777570040 | 15° C | 95% | 1014.4 hPa | 0 mm | - | 69 W/m² | - |
| 1777569431 | 15° C | 96% | 1014.9 hPa | 0 mm | - | 55 W/m² | - |
| 1777569129 | 15° C | 96% | 1015.8 hPa | 0.51 mm | - | 44 W/m² | - |
| 1777567008 | 15° C | 97% | 1015.8 hPa | 0 mm | - | 36 W/m² | - |
| 1777564579 | 14.44° C | 96% | 1014.3 hPa | 0.51 mm | - | 99 W/m² | - |
| 1777564275 | 14.44° C | 95% | 1015.1 hPa | 0.51 mm | - | 73 W/m² | - |
| 1777563363 | 15° C | 93% | 1015.7 hPa | 0 mm | - | 83 W/m² | - |
| 1777563059 | 15° C | 93% | 1016.1 hPa | 0 mm | - | 80 W/m² | - |
* Rain latest hour (hover to see other rain measurements)
** Current wind speed in m/s (hover to see current wind gust speed)